Welcome to the New NWS' Forecast!
Most changes are behind the scenes, but click here for differences you might notice.
Latest weather observations around

Gadsden, Gadsden Municipal Airport (KGAD)

Using International System of Units (Switch to English Units)
Date/ Time (CDT) Wind (kph) Vis. (km) Weather Sky Cond. Temp (°C) Rel. Humidity Wind Chill (°C) Heat Index (°C) Pressure Precip. (cm)
Air Dwpt 6 hour Altimeter (hPa) Sea level (hPa) 1 hr 3 hr 6 hr
Max Min
Aug 15 21:56 Calm 16.09 Clear CLR 24 24     100%   25 1018.6 1018.4      
Aug 15 20:56 Calm 16.09 Clear CLR 25 24     94%   26 1018.6 1018.4      
Aug 15 19:56 Calm 16.09 Mostly Clear FEW100 27 24     85%   29 1018.3 1018.1      
Aug 15 18:56 SSW 5 16.09 Clear CLR 29 24     72%   34 1018 1017.5      
Aug 15 17:56 Calm 16.09 Clear CLR 30 24     70%   35 1017.6 1017.3      
Aug 15 16:56 SSE 9 16.09 Clear CLR 33 23     56%   38 1017.3 1017.2      
Aug 15 15:56 SSW 8 16.09 Clear CLR 33 21     49%   37 1017.6 1017.4      
Aug 15 14:56 8 16.09 Clear CLR 33 23     56%   38 1018 1017.7      
Aug 15 13:56 5 16.09 Clear CLR 32 22     56%   36 1018.3 1018.2      
Aug 15 12:56 SSW 11 16.09 Mostly Clear FEW036 33 23     57%   38 1019 1018.7      
Aug 15 11:56 S 8 16.09 Mostly Clear FEW032 31 24     68%   37 1019.7 1019.4      
Aug 15 10:56 Calm 16.09 Clear CLR 30 24     72%   36 1020 1019.4      
Aug 15 09:56 Calm 16.09 Clear CLR 28 24     82%   32 1019.7 1019.5      
Aug 15 08:56 Calm 14.48 Clear CLR 26 24     90%   27 1019.7 1019.4      
Aug 15 07:56 Calm 12.87 Clear CLR 23 23     100%   24 1019.3 1019.1      
Aug 15 05:56 Calm 9.66 Fog/Mist CLR 19 19     100%     1018 1017.8      
Aug 15 04:56 NW 5 9.66 Fog/Mist CLR 20 20     100%     1017.6 1017.3      
Aug 15 04:30 Calm 6.44 Fog/Mist CLR 21 21     100%     1017.6        
Aug 15 04:20 Calm 2.41 Fog/Mist CLR 20 20     100%     1017.6        
Aug 15 03:56 Calm 16.09 Clear CLR 21 21     100%     1018 1017.7      
Aug 15 02:56 Calm 9.66 Fog/Mist CLR 21 21     100%     1018 1017.8      
Aug 15 01:56 Calm 12.87 Clear CLR 21 21     100%     1018 1017.8      
Aug 15 00:56 Calm 12.87 Clear CLR 22 22     100%   23 1018.3 1018.2      
Aug 14 23:56 Calm 16.09 Clear CLR 23 23     100%   24 1018.3 1018.2      
Aug 14 22:56 W 8 14.48 Clear CLR 22 22     100%   23 1018.3 1017.9      
Aug 14 21:56 Calm 16.09 Clear CLR 23 23     100%   24 1017.6 1017.3      
Aug 14 20:56 Calm 16.09 Clear CLR 24 23     91%   25 1016.9 1016.8      
Aug 14 19:56 Calm 16.09 Clear CLR 26 24     88%   28 1016.6 1016.3      
Aug 14 18:56 Calm 16.09 Clear CLR 29 24     72%   34 1016.3 1016.2      
Aug 14 17:56 NE 5 16.09 Partly Cloudy SCT080 32 21     52%   34 1016.3 1016      
Aug 14 16:56 NNW 8 16.09 Mostly Cloudy BKN080 32 19     47%   34 1016.3 1016      
Aug 14 15:56 NE 8 16.09 Mostly Clear FEW065 33 19     44%   34 1016.3 1015.8      
Aug 14 14:56 Calm 16.09 Partly Cloudy SCT060 32 19     45%   34 1016.6 1016.4      
Aug 14 13:56 9 16.09 Clear CLR 32 21     50%   35 1016.9 1016.8      
Aug 14 11:56 5 16.09 Clear CLR 31 20     52%   33 1018.3 1018 0    
Aug 14 11:18 ENE 5 16.09 Clear CLR 30 23     66%   34 1018.3   0    
Aug 14 11:10 Calm 4.02 Light Rain FEW001 29 22     66%   32 1018.6   0    
Aug 14 10:56 Calm 2.01 Haze FEW002 29 22     65%   32 1018.6 1018.3      
Aug 14 10:51 Calm 16.09 Mostly Clear FEW002 29 22     66%   32 1018.6        
Aug 14 08:56 Calm 16.09 Heavy Rain CLR 24 22     85%   25 1018.3 1018.3      
Aug 14 07:56 Calm 16.09 Clear CLR 21 20     93%     1018.6 1018.5      
Aug 14 05:56 Calm 14.48 Clear CLR 18 18     100%     1017.6 1017.5      
Aug 14 04:56 Calm 14.48 Clear CLR 18 18     100%     1017.3 1016.8      
Aug 14 02:56 Calm 16.09 Clear CLR 19 19     100%     1016.6 1016.5      
Aug 14 01:56 Calm 16.09 Clear CLR 19 19     100%     1017.3 1016.9      
Aug 14 00:56 N 5 16.09 Clear CLR 19 19     100%     1017.3 1017      
Aug 13 23:56 Calm 16.09 Clear CLR 20 20     100%     1017.6 1017.5      
Aug 13 22:56 Calm 16.09 Partly Cloudy SCT070 21 21     100%     1017.6 1017.4      
Aug 13 20:56 Calm 16.09 Clear CLR 22 21     93%   23 1017.3 1017      
Aug 13 19:56 Calm 16.09 Clear CLR 23 22     91%   24 1016.3 1016.2      
Aug 13 18:56 Calm 16.09 Clear CLR 27 22     74%   30 1015.9 1015.6      
Aug 13 17:56 NNW 5 16.09 Clear CLR 31 18     46%   31 1015.9 1015.5      
Aug 13 16:56 WNW 11 16.09 Clear CLR 32 19     48%   33 1015.9 1015.7      
Aug 13 15:56 N 8 16.09 Clear CLR 32 19     45%   34 1016.3 1016.2      
Aug 13 14:56 W 8 16.09 Clear CLR 32 19     45%   34 1016.9 1016.8      
Aug 13 13:56 SSW 5 16.09 Mostly Clear FEW050 31 20     52%   33 1018 1017.6      
Aug 13 12:56 Calm 16.09 Clear CLR 31 19     48%   32 1018.3 1018.1      
Aug 13 11:56 Calm 16.09 Clear CLR 30 21     57%   32 1019 1018.6      
Aug 13 10:56 NE 8 16.09 Clear CLR 29 22     63%   32 1019 1018.9      
Aug 13 09:56 Calm 16.09 Clear CLR 27 23     77%   30 1019.3 1018.9      
Aug 13 08:56 Calm 16.09 Clear CLR 26 23     85%   26 1019 1018.7      
Aug 13 07:56 NNW 5 14.48 Clear CLR 23 22     96%   24 1018.6 1018.6      
Aug 13 06:56 Calm 8.05 Fog/Mist CLR 21 21     100%     1018.6 1018.2      
Aug 13 05:56 Calm 9.66 Fog/Mist CLR 21 21     100%     1018.3 1017.9      
Aug 12 22:56 Calm 16.09 Clear CLR 23 23     100%   24 1018.3 1018      
Aug 12 21:56 Calm 16.09 Clear CLR 24 24     100%   25 1018 1017.9      
May 15 08:56 SE 9 16.09 Mostly Clear FEW060 25 20     74%   25 1016.6 1016.4      
May 15 05:56 NNW 9 6.44 Fog/Mist CLR 18 18     100%     1016.3 1015.9      
May 15 03:56 Calm 12.87 Mostly Clear FEW070 19 19     100%     1015.6 1015.4      
May 14 13:56 N 8 16.09 Clear CLR 33 18     42%   34 1016.6 1016.2      
May 14 11:56 NNE 15 16.09 Mostly Clear FEW060 31 18     48%   32 1017.6 1017.4      
May 13 18:56 Calm 16.09 Clear CLR 29 19     55%   31 1016.9 1017      
May 13 17:56 WNW 9 16.09 Clear CLR 31 18     45%   32 1016.9 1016.9      
May 13 03:56 Calm 3.22 Fog/Mist CLR 14 14     100%     1019 1018.9      
May 13 00:56 Calm 8.05 Fog/Mist CLR 16 16     100%     1019 1018.9      
May 12 04:56 Calm 12.87 Clear CLR 15 15     100%     1020.7 1020.5      
May 12 03:56 W 5 12.87 Clear CLR 15 15     100%     1020 1019.8      
May 11 20:56 WSW 5 16.09 Clear CLR 21 19     87%     1019 1018.9      
Jun 12 04:56 Calm 16.09 Mostly Cloudy FEW028 BKN034 21 21     97%     1021 1021.9      
Jun 11 10:20 Calm 16.09 Mostly Cloudy BKN021 27 22     74%   29 1022        
Jun 10 21:56 Calm 16.09 Clear   21 18     81%     1019.7 1020.7      
Jun 10 20:56 Calm 16.09 Clear CLR 23 18     71%   24 1018.6 1019.8      
Jun 10 03:56 Calm 16.09 Mostly Clear FEW070 16 16     100%     1016.6 1017.7      
Jun 08 22:56 Calm 16.09 Mostly Clear FEW060 17 16     93%     1013.6 1014.9      
Jun 07 18:56 N 15 16.09 Clear CLR 25 13     47%   25 1010.8 1012.2      
Jun 07 15:56 NNE 22 16.09 Clear CLR 28 12     38%   27 1010.2 1011.2      
Jun 07 13:56 N 17 16.09 Clear CLR 27 16     49%   28 1010.2 1011.4      
Jun 07 11:56 NE 17 16.09 Clear CLR 26 17     58%   26 1010.8        
Jun 06 04:23 Calm 11.27 Partly Cloudy SCT003 21 21     100%     1009.2        
Jun 05 23:56 Calm 16.09 Light Rain CLR 22 21     96%   22 1010.5 1011.3 0